New Orleans Lakefront, LA

9:17 PM CDT on July 20, 2017 (GMT -0500)
Lakefront

Weather History for KNEW - November, 2013

Change the Weather History Date:

Friday, November 8, 2013

  Actual Average Record
Temperature  
Mean Temperature 58 °F 65 °F  
Max Temperature 65 °F 74 °F 85 °F (1986)
Min Temperature 51 °F 56 °F 35 °F (1991)
Degree Days  
Heating Degree Days 7 3  
Month to date heating degree days 16 21  
Since 1 July heating degree days 21 46  
Cooling Degree Days 0 3  
Month to date cooling degree days 18 27  
Year to date cooling degree days 2926 2936  
Growing Degree Days 10 (Base 50)    
Moisture  
Dew Point 40 °F    
Average Humidity 50    
Maximum Humidity 66    
Minimum Humidity 34    
Precipitation  
Precipitation 0.00 in 0.14 in 1.66 in (1989)
Month to date precipitation 0.10 1.11  
Year to date precipitation 61.38 53.83  
Snow  
Snow 0.00 in - - ()
Month to date snowfall 0.0  
Since 1 July snowfall 0.0  
Since 1 September snowfall 0.0  
Snow Depth 0.00 in    
Sea Level Pressure  
Sea Level Pressure 30.25 in    
Wind  
Wind Speed 15 mph (NE)    
Max Wind Speed 24 mph    
Max Gust Speed 31 mph    
Visibility 10 miles    
Events      
T = Trace of Precipitation, MM = Missing Value Source: NWS Daily Summary

Daily Weather History Graph

Daily Weather History Graph

Search for Another Location

Airport or City:

Trip Planner

Search our weather history database for the weather conditions in past years. The results will help you decide how hot, cold, wet, or windy it might be!

Date:

Astronomy

Nov. 08, 2013 Rise Set
Actual Time 6:19 AM CST 5:07 PM CST
Civil Twilight 5:54 AM CST 5:32 PM CST
Nautical Twilight 5:26 AM CST 6:01 PM CST
Astronomical Twilight 4:57 AM CST 6:29 PM CST
Moon 11:15 AM CST (11/8) 10:27 PM CST (11/8)
Length of Visible Light 11h 37m
Length of Day
10h 47m
Waxing Crescent, 33% of the Moon is Illuminated
Nov 8
Waxing Crescent
Nov 9
First Quarter
Nov 17
Full
Nov 25
Last Quarter
Dec 2
New

Hourly Weather History & Observations

Time (CST) Temp. Dew Point Humidity Pressure Visibility Wind Dir Wind Speed Gust Speed Precip Events Conditions
12:53 AM 55.0 °F 44.1 °F 67% 30.27 in 10.0 mi NNE 23.0 mph - N/A   Clear
1:53 AM 55.0 °F 43.0 °F 64% 30.26 in 10.0 mi NNE 25.3 mph 34.5 mph N/A   Clear
2:53 AM 54.0 °F 42.1 °F 64% 30.26 in 10.0 mi NNE 29.9 mph 34.5 mph N/A   Clear
3:53 AM 53.1 °F 41.0 °F 64% 30.26 in 10.0 mi NE 28.8 mph - N/A   Clear
4:53 AM 53.1 °F 41.0 °F 64% 30.28 in 10.0 mi NE 26.5 mph - N/A   Clear
5:53 AM 53.1 °F 39.9 °F 61% 30.29 in 10.0 mi NE 24.2 mph 32.2 mph N/A   Clear
6:53 AM 53.1 °F 39.9 °F 61% 30.31 in 10.0 mi NE 25.3 mph - N/A   Clear
7:53 AM 54.0 °F 39.9 °F 59% 30.32 in 10.0 mi NE 21.9 mph 29.9 mph N/A   Clear
8:53 AM 55.9 °F 37.9 °F 51% 30.32 in 10.0 mi NE 21.9 mph 29.9 mph N/A   Clear
9:53 AM 59.0 °F 36.0 °F 42% 30.31 in 10.0 mi ENE 23.0 mph 31.1 mph N/A   Clear
10:53 AM 61.0 °F 36.0 °F 39% 30.30 in 10.0 mi ENE 16.1 mph - N/A   Clear
11:53 AM 63.0 °F 36.0 °F 37% 30.27 in 10.0 mi NE 15.0 mph - N/A   Clear
12:53 PM 63.0 °F 35.1 °F 35% 30.23 in 10.0 mi NE 11.5 mph - N/A   Clear
1:53 PM 66.0 °F 36.0 °F 33% 30.21 in 10.0 mi NE 10.4 mph - N/A   Clear
2:53 PM 66.9 °F 37.0 °F 33% 30.19 in 10.0 mi North 8.1 mph - N/A   Clear
3:53 PM 66.0 °F 37.9 °F 36% 30.19 in 10.0 mi NNE 11.5 mph - N/A   Clear
4:53 PM 64.0 °F 41.0 °F 43% 30.19 in 10.0 mi North 16.1 mph - N/A   Clear
5:53 PM 63.0 °F 41.0 °F 45% 30.20 in 10.0 mi NNE 16.1 mph - N/A   Clear
6:53 PM 62.1 °F 43.0 °F 50% 30.21 in 10.0 mi NNE 15.0 mph - N/A   Clear
7:53 PM 61.0 °F 43.0 °F 52% 30.21 in 10.0 mi NE 15.0 mph - N/A   Clear
8:53 PM 61.0 °F 41.0 °F 48% 30.22 in 10.0 mi ENE 16.1 mph - N/A   Clear
9:53 PM 60.1 °F 43.0 °F 53% 30.22 in 10.0 mi ENE 15.0 mph - N/A   Clear
10:53 PM 57.9 °F 43.0 °F 58% 30.20 in 10.0 mi ENE 15.0 mph - N/A   Clear
11:53 PM 57.9 °F 44.1 °F 60% 30.18 in 10.0 mi ENE 13.8 mph - N/A   Clear